Home   Weather   Langen   Past weeks

Flag for Germany Past Weather in Langen, Hesse, Germany — Yesterday and Last 2 Weeks

Now
50 °F

Sprinkles. Partly sunny.


Feels Like: 46 °F
Forecast: 36 / 42 °F
Wind: 12 mph from Southwest

Location: Frankfurt-M-Flughafen Airport

Current Time: Dec 11, 2016 at 3:12:07 pm

Latest Report: Dec 11, 2016 at 2:20 pm


Visibility: N/A

Pressure: 30.18 "Hg

Humidity: 67%

Dew Point: 39 °F

Location of LangenLocation

Past Weather in Langen — Graph

°F

Langen Temperature Yesterday

Maximum temperature yesterday: 46 °F (at 2:20 pm)
Minimum temperature yesterday: 28 °F (at 5:50 am)
Average temperature yesterday: 36 °F

High & Low Weather Summary for the Past Weeks

 TemperatureHumidityPressure
High50 °F (Dec 11, 12:50 pm)100% (Nov 27, 4:20 am)30.60 "Hg (Nov 27, 4:20 am)
Low18 °F (Nov 30, 8:20 am)48% (Nov 28, 2:20 pm)30.04 "Hg (Nov 26, 1:50 pm)
Average34 °F84%30.36 "Hg
* Reported Nov 26 1:20 pm — Dec 11 1:50 pm, Langen, Weather by CustomWeather, © 2016

Note: Actual official high and low records may vary slightly from our data, if they occured in-between our weather recording intervals... More about our weather records

Advertising

Langen Weather History for the Previous 24 Hours

Scroll right to see more
 ConditionsComfort  
Time TempWeatherWind HumidityBarometerVisibility
1:50 pm
Sun, Dec 11
50 °FPartly sunny.12 mph67%30.18 "HgN/A
1:20 pm50 °FBroken clouds.10 mph67%30.18 "HgN/A
12:50 pm50 °FPartly sunny.14 mph67%30.15 "HgN/A
12:20 pm48 °FBroken clouds.9 mph71%30.18 "HgN/A
11:50 am48 °FBroken clouds.12 mph71%30.18 "HgN/A
11:20 am48 °FBroken clouds.16 mph71%30.18 "HgN/A
10:50 am48 °FBroken clouds.13 mph71%30.15 "HgN/A
10:20 am48 °FPartly sunny.12 mph76%30.15 "HgN/A
9:50 am48 °FPartly sunny.12 mph76%30.15 "HgN/A
9:20 am48 °FPartly sunny.13 mph76%30.12 "HgN/A
8:50 am48 °FPartly sunny.10 mph82%30.12 "HgN/A
8:20 am46 °FPartly sunny.13 mph87%30.09 "HgN/A
7:50 am46 °FPassing clouds.15 mph87%30.07 "HgN/A
7:20 am46 °FOvercast.14 mph82%30.07 "HgN/A
6:50 am45 °FOvercast.16 mph87%30.04 "HgN/A
6:20 am45 °FLight rain. Passing clouds.16 mph81%30.04 "HgN/A
5:50 am43 °FPassing clouds.10 mph87%30.07 "HgN/A
5:20 am41 °FPassing clouds.9 mph87%30.07 "HgN/A
4:50 am43 °FPassing clouds.9 mph81%30.07 "HgN/A
4:20 am41 °FPassing clouds.10 mph87%30.09 "HgN/A
3:50 am41 °FPassing clouds.10 mph87%30.09 "HgN/A
3:20 am41 °FPassing clouds.10 mph81%30.09 "HgN/A
2:50 am41 °FPassing clouds.10 mph81%30.12 "HgN/A
2:20 am41 °FPassing clouds.7 mph81%30.12 "HgN/A
1:50 am41 °FPartly cloudy.7 mph81%30.12 "HgN/A
1:20 am41 °FPartly cloudy.8 mph81%30.15 "HgN/A
12:50 am41 °FPassing clouds.7 mph81%30.15 "HgN/A
12:20 am41 °FPassing clouds.6 mph81%30.18 "HgN/A
11:50 pm
Sat, Dec 10
41 °FPassing clouds.3 mph81%30.18 "HgN/A
11:20 pm41 °FPassing clouds.5 mph81%30.18 "HgN/A
10:50 pm41 °FPassing clouds.7 mph81%30.21 "HgN/A
10:20 pm41 °FPassing clouds.7 mph81%30.21 "HgN/A
9:50 pm39 °FPassing clouds.8 mph87%30.21 "HgN/A
9:20 pm39 °FPartly cloudy.7 mph87%30.21 "HgN/A
8:50 pm39 °FClear.6 mph87%30.21 "Hg10 mi
8:20 pm39 °FClear.3 mph87%30.24 "Hg10 mi
7:50 pm36 °FClear.6 mph93%30.24 "Hg10 mi
7:20 pm36 °FClear.6 mph93%30.24 "Hg10 mi
6:50 pm36 °FFog.8 mph93%30.24 "HgN/A
6:20 pm36 °FPassing clouds.5 mph93%30.24 "HgN/A
5:50 pm36 °FClear.6 mph93%30.24 "Hg10 mi
5:20 pm37 °FClear.2 mph93%30.24 "Hg10 mi
4:50 pm37 °FClear.3 mph93%30.24 "Hg10 mi
4:20 pm41 °FSunny.3 mph81%30.24 "Hg10 mi
3:50 pm45 °FPassing clouds.5 mph76%30.24 "HgN/A
3:20 pm46 °FSunny.6 mph71%30.24 "Hg10 mi
Weather by CustomWeather, © 2016

See weather overviewHow to use our weather pages